Location: Lavardac
(44.1778°N, 0.2983°E)
Time: 18:39:29
(UTC+00:00)

Cosmos 220 Rocket - Pass Details

Date: 06 June 2020
Orbit: 575 x 617 km, 74.0° (Epoch: 10 July)

Event Time Altitude Azimuth Distance (km) Brightness Sun altitude
Exits shadow 23:29:35 55° 242° (WSW) 740 4.2 -22.7°
Maximum altitude 23:30:19 66° 292° (WNW) 673 4.2 -22.8°
Drops below altitude 10° 23:34:45 10° 15° (NNE) 1,989 7.6 -22.8°
Sets 23:37:02 0° 19° (NNE) 2,899 8.6 -22.9°
